Theta_e
341 341 345 348 348 354 351 349 346 344 343 343 343 345 343 340 338 337 334 334 334 333 333 332 332 332 332 331 331 330 330 329 326 330 329 327 327 329 330 329 326 329 332
341 348 349 348 353 352 350 350 347 346 345 344 345 341 340 338 337 334 334 334 333 332 332 331 332 332 330 330 330 330 330 329 328 328 329 330 329 329 330 330 327 330 331
349 350 351 352 352 349 348 349 349 348 346 344 341 339 336 336 335 334 332 333 333 332 331 332 331 328 329 329 329 329 330 329 329 327 326 328 328 330 330 328 328 328 329
350 349 349 348 345 343 341 342 343 342 340 339 337 333 335 336 333 330 331 333 333 332 332 332 330 328 327 328 328 327 329 329 328 326 325 325 326 327 328 327 327 328 330
346 345 345 344 343 341 340 340 337 337 336 336 334 334 334 334 331 331 333 333 333 332 332 331 326 326 326 328 328 329 329 328 325 324 324 323 323 324 324 323 321 324 324
345 344 343 343 342 340 339 337 335 336 334 334 333 332 332 332 333 333 333 333 332 332 330 326 326 326 325 326 329 328 329 328 324 324 323 323 323 323 323 322 320 321 318
343 343 342 341 340 338 335 334 335 334 335 333 332 332 331 331 332 333 333 333 333 331 329 327 327 326 325 325 328 328 329 328 328 324 323 323 322 323 322 321 321 320 318
342 340 339 338 336 336 335 334 333 334 332 333 333 332 330 328 326 327 333 333 332 331 329 327 327 328 328 328 328 330 328 326 325 325 323 323 323 323 323 322 321 320 320
337 336 335 336 335 335 333 333 334 333 333 334 333 332 330 327 326 329 331 333 331 330 327 327 326 328 329 327 329 328 326 325 324 324 324 324 324 322 322 322 321 318 318
334 334 335 334 334 334 332 334 333 332 333 334 333 332 330 328 329 330 332 331 330 327 327 326 326 328 328 329 328 327 325 325 324 323 323 323 322 322 322 323 321 319 318
333 335 337 335 334 332 334 334 333 333 333 334 332 331 330 329 329 331 331 331 329 327 326 325 325 326 327 329 328 326 327 325 323 322 321 321 322 321 321 321 320 321 319
336 336 336 335 335 335 334 333 333 334 334 332 332 331 329 328 328 329 331 330 329 326 325 325 325 327 329 329 328 327 326 324 322 321 320 320 320 321 321 321 321 321 321
335 335 335 335 335 334 333 333 334 333 332 330 331 331 328 327 327 327 329 329 327 326 325 325 327 328 329 328 326 326 323 322 321 321 320 320 320 321 320 319 319 320 320
334 334 335 335 335 334 334 334 333 333 331 329 329 330 328 326 325 325 326 328 327 326 325 325 326 326 327 326 324 324 323 323 321 320 320 320 320 320 320 319 319 319 320
335 335 334 334 335 334 333 333 333 332 332 331 330 329 329 327 326 325 325 324 324 324 324 324 325 324 323 323 324 323 323 322 321 321 320 320 320 319 320 320 320 320 322
335 334 334 333 332 330 330 329 330 331 332 331 331 329 328 328 327 327 325 323 324 323 322 321 322 322 322 323 324 323 321 321 321 320 320 320 320 320 320 320 322 323 324
334 333 334 333 332 330 328 327 321 325 330 330 330 330 328 328 328 327 325 323 322 322 321 320 320 321 322 323 324 323 323 321 320 320 320 320 320 320 320 320 320 320 321
334 334 333 333 333 332 330 327 326 326 324 324 327 328 328 327 326 325 323 322 322 322 322 321 320 321 322 324 324 323 323 323 322 321 320 321 320 320 320 320 320 320 321
333 333 332 334 333 333 332 328 328 327 323 318 322 325 325 324 324 323 322 323 324 323 321 321 321 321 322 323 323 323 323 322 322 322 321 322 322 323 321 322 321 321 321
333 334 333 333 333 333 332 330 329 326 322 321 320 319 321 321 321 321 323 324 325 326 322 321 321 322 322 323 323 323 322 323 323 323 323 323 323 323 323 323 324 324 324
333 332 333 333 332 332 332 331 330 327 325 324 322 321 321 321 322 323 324 324 325 326 326 323 322 322 322 322 323 323 324 323 323 323 325 325 324 325 325 325 324 325 325
329 330 331 331 332 332 333 333 332 330 328 324 322 323 323 323 323 324 325 325 326 325 327 326 324 324 323 323 324 323 324 325 325 326 326 327 326 325 325 325 324 324 324
329 330 329 330 332 333 333 334 333 331 328 324 323 323 324 324 325 325 327 328 328 327 327 327 327 327 326 326 326 326 326 326 326 327 327 327 327 327 327 327 326 326 327
328 330 330 328 331 331 332 333 333 330 327 325 323 322 323 326 328 328 326 325 324 324 324 323 323 323 323 325 326 326 327 327 327 328 328 327 327 328 329 329 328 329 329
329 329 329 328 329 329 332 331 330 328 327 327 326 325 322 319 318 316 317 316 314 313 312 316 317 317 317 319 322 324 325 327 327 325 327 328 327 327 326 325 325 323 321
322 323 322 323 323 321 325 322 323 325 322 320 317 314 313 309 308 307 307 309 309 309 309 308 308 311 313 315 315 317 320 323 324 324 325 325 325 323 320 319 316 314 312
Wind_Speed
29 27 23 24 26 29 32 30 28 26 27 26 26 22 21 22 18 13 12 12 15 14 12 10 9 9 8 7 10 10 9 9 5 6 16 15 15 18 18 18 20 20 19
26 25 23 25 26 32 30 29 28 27 26 27 24 23 21 18 15 13 13 12 19 18 14 12 11 9 7 7 9 11 10 13 19 12 11 16 17 14 17 17 19 18 19
28 27 25 25 25 28 30 30 34 32 28 26 24 19 17 17 16 15 12 10 17 14 13 13 13 9 8 6 8 10 10 17 24 18 11 16 17 19 19 17 18 19 21
24 26 27 27 30 32 32 27 30 28 26 25 21 16 19 18 20 12 14 13 14 12 14 14 12 10 7 5 10 12 13 22 22 23 17 16 13 18 21 23 19 19 22
28 27 27 31 29 29 27 26 26 21 18 20 18 16 17 22 16 14 14 15 12 13 13 12 10 8 8 4 11 13 20 25 24 18 14 11 13 16 18 16 20 22 23
29 26 27 29 27 26 22 23 21 20 19 17 18 21 19 18 16 14 12 13 12 12 13 11 8 7 9 8 10 12 23 29 21 18 13 15 13 18 22 26 23 18 5
28 27 26 27 26 23 22 21 19 18 18 24 22 20 17 14 12 12 12 12 13 11 10 9 7 7 8 8 8 12 23 22 23 26 21 19 20 25 29 27 19 17 10
27 25 26 28 26 23 22 19 16 22 23 21 20 18 16 12 9 10 10 13 14 10 7 8 8 5 8 10 10 23 20 18 19 21 25 24 24 28 30 30 26 22 24
24 25 25 29 25 22 21 19 19 21 20 19 19 16 13 11 11 11 11 13 13 10 9 9 6 4 9 14 21 25 22 20 13 15 21 21 23 26 28 31 27 26 11
27 26 32 30 27 24 21 17 21 20 18 18 17 13 10 14 12 10 11 14 15 11 9 8 6 6 9 17 27 28 24 24 21 21 19 18 23 23 25 27 32 25 19
30 29 30 31 30 25 21 21 18 18 19 21 19 14 12 13 12 8 12 15 14 12 11 9 6 9 11 22 27 27 28 25 24 24 24 24 23 24 22 23 28 30 25
34 33 29 31 24 27 25 21 20 22 24 21 20 18 13 11 9 8 10 13 13 13 14 11 11 12 15 23 26 25 26 26 25 25 24 23 24 20 17 19 22 22 21
34 31 31 27 26 25 23 21 21 24 24 22 20 16 15 11 10 9 10 13 10 14 15 14 16 15 19 17 24 27 26 25 23 21 19 18 23 20 19 18 17 17 15
31 29 30 30 27 23 22 22 23 24 22 20 20 16 16 14 12 11 11 13 12 14 19 20 18 18 21 26 29 23 22 23 25 22 20 20 21 22 21 20 20 21 19
30 26 29 26 23 22 18 15 18 20 23 24 24 25 22 17 16 13 12 12 16 21 24 23 20 22 25 25 18 19 20 20 21 21 22 21 22 23 22 19 17 18 11
25 22 25 25 25 24 22 18 11 8 13 16 21 24 22 17 16 15 12 12 18 22 21 19 19 21 20 19 20 21 20 20 20 21 22 20 18 19 20 23 17 16 11
27 23 28 25 23 21 22 22 15 14 14 17 18 19 21 22 20 17 14 18 19 17 18 17 17 19 19 19 21 23 21 20 21 21 22 22 21 19 22 20 20 15 11
29 32 27 23 22 22 21 22 24 19 17 18 19 22 22 21 19 18 22 23 17 13 18 18 17 19 20 21 23 20 20 22 22 23 21 20 22 20 21 19 20 18 19
27 26 24 25 22 26 24 23 22 21 21 20 21 21 20 18 17 23 23 19 13 14 16 18 20 20 22 23 22 21 20 22 21 20 21 20 22 21 23 18 22 22 22
27 25 25 24 25 25 22 22 21 22 21 19 18 21 22 24 22 20 15 13 9 12 15 17 19 20 21 23 22 16 17 18 19 19 19 19 19 21 21 21 21 23 23
20 23 29 25 27 23 22 26 23 22 20 19 24 25 24 24 23 19 16 14 11 11 15 15 19 19 19 20 17 21 16 18 20 19 16 20 21 21 23 23 23 22 21
30 25 28 26 24 24 25 22 25 23 22 22 25 25 21 21 21 17 17 17 14 15 15 17 17 16 18 20 18 19 20 18 17 18 19 19 21 23 25 25 25 25 24
30 26 19 15 25 25 27 25 24 25 24 24 30 30 27 22 18 17 14 10 7 9 7 8 8 11 14 14 18 18 19 19 19 17 19 21 23 25 25 25 25 26 28
25 27 15 13 24 24 23 25 25 26 27 24 18 11 11 5 7 11 15 17 20 20 18 18 16 16 13 13 12 12 12 13 15 17 20 19 19 18 22 23 23 23 23
19 21 29 26 21 15 26 20 23 24 25 24 22 21 23 25 26 25 24 24 24 26 24 21 21 20 19 16 10 7 5 5 2 6 8 6 7 7 9 12 12 14 15
30 29 24 32 32 22 30 31 28 33 30 28 27 28 29 29 31 30 28 29 30 30 30 30 28 27 25 23 21 19 15 11 11 9 8 5 4 8 12 13 13 16 17
Wind_Direction
188 187 188 189 200 187 181 183 182 177 182 186 183 183 175 168 175 185 187 196 190 193 194 202 205 200 213 215 213 216 208 186 131 99 138 157 152 160 172 175 180 181 179
175 171 181 191 193 185 180 176 172 172 180 176 168 163 166 176 182 189 190 206 197 190 194 191 197 203 217 214 215 202 193 183 151 139 119 126 142 150 156 165 171 171 169
170 177 181 181 171 154 151 164 168 167 167 164 166 173 186 185 187 190 197 203 193 197 198 195 200 206 205 209 209 185 190 167 159 148 128 133 128 148 142 150 154 161 170
171 161 144 144 134 134 139 138 141 151 156 165 172 188 188 187 183 189 194 188 191 201 204 211 201 194 196 221 204 186 197 163 159 140 133 137 133 143 143 139 143 160 162
131 131 133 137 138 139 142 146 152 152 149 162 169 174 188 181 175 185 186 180 193 198 197 194 193 212 216 219 199 208 168 160 149 138 141 141 139 142 142 143 135 144 149
129 129 135 140 143 143 143 143 148 153 151 157 154 152 148 157 164 182 186 188 191 181 180 189 209 219 218 216 201 187 188 172 152 154 156 157 156 152 156 147 141 138 116
130 136 139 143 141 142 142 147 153 160 167 156 148 148 147 151 157 166 179 189 187 185 194 197 203 194 193 207 198 200 187 190 186 169 163 163 160 165 157 151 152 142 129
133 135 140 141 142 145 151 158 160 148 145 148 145 148 146 149 159 168 165 173 178 181 189 185 189 176 192 190 165 148 152 160 170 173 179 176 177 173 169 162 157 148 145
134 142 137 144 145 153 159 161 151 147 142 139 143 145 147 150 154 158 159 168 165 164 168 163 171 178 163 167 151 141 140 140 156 168 175 178 181 170 169 164 150 140 134
152 146 149 157 158 163 164 153 150 151 149 145 145 149 149 144 146 160 172 170 155 151 162 170 166 170 155 165 156 147 136 145 144 149 154 161 167 169 176 182 168 153 144
160 146 152 158 161 162 159 157 153 150 147 143 136 138 138 149 147 140 162 168 161 159 167 158 156 164 164 168 161 155 149 150 145 148 148 154 156 161 174 184 176 175 158
128 138 144 154 151 157 149 154 154 149 147 142 141 138 138 149 150 149 168 178 176 172 171 151 137 143 153 159 160 154 150 148 147 145 146 147 154 160 171 180 186 186 180
124 132 141 146 150 151 150 153 155 156 150 151 137 136 145 148 144 144 143 158 157 165 166 147 137 136 150 150 153 153 150 143 146 140 144 153 165 163 165 172 182 184 176
127 132 136 141 146 146 152 160 165 163 159 160 153 150 154 158 155 152 150 156 159 157 153 145 141 140 143 141 142 147 155 159 156 154 156 160 169 164 168 173 174 180 189
130 136 139 143 137 137 143 154 172 183 183 171 173 166 162 168 176 166 162 160 158 154 150 148 142 142 141 144 139 147 157 160 162 164 163 162 170 176 178 175 168 172 188
129 134 135 138 141 138 132 116 135 161 185 184 181 175 177 170 164 161 168 156 151 155 148 149 149 147 149 146 147 149 155 160 166 170 168 166 169 181 183 180 178 177 195
140 148 145 145 145 140 135 129 115 108 137 149 162 172 172 161 159 166 160 148 142 150 144 151 151 151 154 157 157 161 159 168 171 173 177 179 182 188 190 189 194 203 220
151 155 155 152 153 152 150 149 139 130 119 111 127 141 151 151 151 155 149 145 152 154 161 157 157 160 159 162 165 168 170 168 170 173 183 189 194 196 196 198 207 219 230
163 159 155 163 163 160 158 159 150 137 133 128 127 133 141 142 146 150 154 155 158 159 159 160 170 170 175 174 172 176 176 181 184 185 193 197 193 194 199 202 211 223 232
169 167 162 164 164 162 163 161 148 139 141 137 135 140 142 138 145 159 165 160 160 167 167 167 169 175 183 185 186 183 191 190 192 195 203 202 206 205 209 210 216 221 228
159 167 183 174 164 171 158 150 143 147 146 147 155 158 154 151 158 165 173 178 180 153 182 174 177 182 183 183 191 198 193 204 204 209 211 213 210 214 220 223 226 233 242
159 139 144 159 164 163 157 151 152 145 147 145 155 160 161 160 166 172 185 188 192 185 172 186 178 181 188 187 191 188 199 208 211 217 220 217 216 219 226 230 237 245 253
158 161 165 143 170 163 157 159 150 151 144 151 159 166 171 173 179 187 196 186 178 161 177 188 180 182 197 206 202 206 207 208 209 210 214 216 219 225 230 235 240 248 252
164 155 139 113 167 157 150 152 150 147 143 149 158 148 145 167 138 131 116 122 113 113 115 113 116 129 128 165 180 194 205 218 225 230 233 236 237 238 241 245 247 255 273
110 110 107 99 97 131 150 131 120 113 114 122 128 125 111 103 112 119 119 116 111 105 101 102 100 99 97 99 115 131 166 217 207 145 148 172 134 140 90 80 74 70 57
84 86 81 101 97 78 108 102 101 115 113 112 107 106 106 100 102 102 108 111 107 102 99 93 90 90 90 89 90 92 96 107 112 111 110 116 84 54 55 53 44 46 38